[[{"header":{"parameterUnit":"m.s-1","parameterCategory":1,"la1":30.2991,"la2":30.254,"lo1":-89.0895,"lo2":-89.0444,"dy":0.0017,"dx":0.0017,"nx":28,"ny":28,"refTime":"2023-11-02T21:00:00:Z","depth":0,"parameterNumber":2,"parameterNumberName":"U-component_of_WINDS"},"data":[0,0,0,0,0,0,0,0,0,0,0,0,0,0,0,0,0,0,0,0,0,0,0,0,0,0,0,0,0,0,0,0,0,0,0,0,0,0,0,0,0,0,0,0,0,0,0,0,0,0,0,0,0,0,0,0,0,0,-4.0044,-4.0045,0,-4.0178,-4.018,-4.0181,-4.0099,-4.0095,-4.0091,-4.0087,-4.0225,-4.0232,-4.0239,0,0,0,0,0,0,0,0,0,0,0,0,0,-3.9715,-3.9722,-4.0044,-4.0046,-4.0047,-4.0178,-4.018,-4.0182,-4.01,-4.0095,-4.009,-4.0086,-4.0222,-4.0231,-4.0239,0,0,0,0,0,0,0,0,0,0,0,0,0,-3.9855,-3.9724,-4.0044,-4.0022,-4.0021,-4.0178,-4.018,-4.0182,-4.0101,-4.0095,-4.0089,-4.0083,-4.0219,-4.023,-4.0241,-4.0425,0,0,-4.0274,-4.0279,0,0,0,0,0,0,0,0,-3.9847,-3.9867,-4.0024,-4.0024,-4.0023,-4.0116,-4.0114,-4.0264,-4.0102,-4.0071,-4.0087,-4.0081,-4.0193,-4.0206,-4.0244,-4.0432,-4.0438,-4.0275,-4.0282,-4.0286,-4.0289,0,0,0,0,0,0,0,-3.9837,-3.9861,-4.0097,-4.0026,-4.0026,-4.0005,-4.0019,-4.0142,-4.0163,-4.0073,-4.0067,-4.0084,-4.0192,-4.0233,-4.0246,-4.044,-4.0275,-4.0284,-4.0291,-4.0295,-4.0784,-4.0791,0,0,0,0,0,0,-3.983,-3.9853,-4.0093,-4.0101,-3.9919,-4.0016,-4.0031,-4.0092,-4.0161,-4.0166,-4.0089,-4.008,-4.0218,-4.0234,-4.0251,-4.0471,-4.0286,-4.0297,-4.0303,-4.0778,-4.0786,-4.0793,0,0,0,0,0,0,-3.9823,-3.9852,-4.0087,-3.9976,-4.0004,-4.0028,-4.0097,-4.0098,-4.0139,-4.0174,-4.0177,-4.0128,-4.0214,-4.0236,-4.0382,-4.0474,-4.0301,-4.0311,-4.0771,-4.0781,-4.0789,-4.0912,0,0,0,0,0,0,-3.9814,-3.985,-3.992,-3.9978,-4.001,-4.0217,-4.0103,-4.0105,-4.0158,-4.0148,-4.0211,-4.0216,-4.0211,-4.0366,-4.0393,-4.0486,-4.032,-4.0762,-4.0775,-4.0786,-4.09,-4.0925,-4.0946,0,0,0,0,0,-3.9802,-3.995,-3.9925,-3.9954,-4.0099,-4.0223,-4.0241,-4.0233,-4.0166,-4.0237,-4.0259,-4.0214,-4.046,-4.0382,-4.0412,-4.0509,-4.0756,-4.0771,-4.0785,-4.089,-4.092,-4.0946,0,0,0,0,0,0,-3.9903,-3.9957,-3.9929,-4.01,-4.0157,-4.0208,-4.0298,-4.0265,-4.0342,-4.0329,-4.0315,-4.033,-4.0483,-4.0511,-4.0423,-4.0691,-4.0598,-4.0619,-4.0667,-4.0696,-4.0719,-4.0708,-4.0329,0,0,0,0,0,-3.9945,-4.0041,-4.0083,-4.0229,-4.0259,-4.0274,-4.0327,-4.0316,-4.0374,-4.0398,-4.0431,-4.0489,-4.058,-4.064,-4.0725,-4.0904,-4.0916,-4.0986,-4.1009,-4.1027,-4.1045,-4.1141,-4.1172,-4.084,-4.084,-4.084,0,0,-4.0032,-4.0074,-4.0135,-4.025,-4.0293,-4.0392,-4.0295,-4.0404,-4.0477,-4.0415,-4.0555,-4.0581,-4.0645,-4.0809,-4.0883,-4.0837,-4.114,-4.1046,-4.106,-4.1068,-4.1159,-4.119,-4.1218,-4.085,-4.0848,-4.0847,0,0,-4.0242,-4.0284,-4.041,-4.0455,-4.0521,-4.053,-4.056,-4.0617,-4.0632,-4.0772,-4.0727,-4.0814,-4.097,-4.1018,-4.1062,-4.129,-4.1251,-4.1318,-4.1438,-4.1532,-4.1558,-4.1581,-4.1661,-4.169,-4.1337,-4.1337,-4.1337,0,-4.0343,-4.049,-4.0479,-4.0591,-4.0643,-4.0591,-4.0718,-4.0762,-4.0853,-4.089,-4.0838,-4.1032,-4.1072,-4.1245,-4.1301,-4.1339,-4.1372,-4.1311,-4.1555,-4.1578,-4.16,-4.1676,-4.1706,-4.1345,-4.1344,-4.1343,-4.1342,0,-4.061,-4.0713,-4.0807,-4.0896,-4.0958,-4.1078,-4.1083,-4.1148,-4.1131,-4.1145,-4.1289,-4.1335,-4.1427,-4.1468,-4.1453,-4.1639,-4.1609,-4.1557,-4.1462,-4.1639,-4.171,-4.1739,-4.1356,-4.1353,-4.135,-4.1349,0,0,-4.0886,-4.0967,-4.1002,-4.1041,-4.111,-4.119,-4.1307,-4.1398,-4.1453,-4.1517,-4.1614,-4.1747,-4.1699,-4.175,-4.1739,-4.1822,-4.1998,-4.1759,-4.176,-4.1801,-4.2205,-4.2242,-4.2277,-4.1973,-4.1978,-4.1983,-4.2199,0,-4.1099,-4.1303,-4.1296,-4.1486,-4.158,-4.1533,-4.1634,-4.1688,-4.1704,-4.1786,-4.1804,-4.1898,-4.1828,-4.1858,-4.1938,-4.196,-4.2078,-4.1944,-4.2062,-4.2066,-4.2046,-4.2314,-4.2355,-4.2556,-4.2227,-4.2231,-4.2235,0,-4.1375,-4.1449,-4.1648,-4.1703,-4.1742,-4.1834,-4.1916,-4.1996,-4.2055,-4.2061,-4.2118,-4.2094,-4.2212,-4.2116,-4.2277,-4.2186,-4.2233,-4.2251,-4.2259,-4.2268,-4.216,-4.2329,-4.2621,-4.265,-4.2279,-4.2275,-4.2272,0,-4.1555,-4.1704,-4.1842,-4.1877,-4.1945,-4.201,-4.2042,-4.2095,-4.215,-4.2222,-4.2257,-4.2343,-4.2389,-4.2455,-4.2455,-4.2385,-4.2618,-4.2522,-4.2625,-4.2625,-4.2675,-4.2672,-4.2977,-4.2709,-4.2709,-4.2708,-4.2707,0,-4.1792,-4.1916,-4.1923,-4.2009,-4.2145,-4.2136,-4.2271,-4.2296,-4.2344,-4.2432,-4.2397,-4.248,-4.2476,-4.256,-4.2561,-4.2694,-4.2715,-4.2723,-4.2721,-4.2725,-4.2724,-4.2755,-4.274,-4.2716,-4.2714,-4.2713,-4.2711,0,-4.2016,-4.2026,-4.2173,-4.2225,-4.2241,-4.234,-4.2384,-4.2464,-4.2477,-4.259,-4.2615,-4.2636,-4.2734,-4.2741,-4.2854,-4.2854,-4.3015,-4.2999,-4.2995,-4.2991,-4.3094,-4.3083,-4.3428,-4.3472,-4.3177,-4.318,-4.3182,0,-4.2166,-4.226,-4.2322,-4.2379,-4.2414,-4.2506,-4.2561,-4.2556,-4.2615,-4.269,-4.2761,-4.2856,-4.293,-4.3089,-4.3114,-4.32,-4.3184,-4.3299,-4.3197,-4.3198,-4.3184,-4.3178,-4.3186,-4.3319,-4.3322,-4.3325,-4.3327,0,-4.2431,-4.2431,-4.2513,-4.2598,-4.2665,-4.2731,-4.2792,-4.2841,-4.2843,-4.2911,-4.3011,-4.3069,-4.3185,-4.3278,-4.3362,-4.3394,-4.3361,-4.3359,-4.3387,-4.3391,-4.3384,-4.3388,-4.3047,-4.3351,-4.3348,-4.3347,-4.3345,-4.3344,-4.2621,-4.2702,-4.2758,-4.285,-4.2896,-4.2954,-4.3032,-4.3055,-4.3138,-4.3231,-4.3223,-4.3333,-4.3389,-4.3499,-4.3537,-4.3623,-4.3583,-4.3625,-4.3635,-4.3645,-4.3654,-4.3373,-4.3638,-4.3637,-4.3637,-4.3636,-4.3636,0,-4.2883,-4.2916,-4.3002,-4.3088,-4.3161,-4.3125,-4.319,-4.3253,-4.3351,-4.3406,-4.3481,-4.3595,-4.3685,-4.3718,-4.3806,-4.3868,-4.3855,-4.3891,-4.3885,-4.3893,-4.3685,-4.3651,-4.39,-4.39,-4.39,-4.39,-4.39,-4.39,-4.3027,-4.3161,-4.3168,-4.3325,-4.3357,-4.3465,-4.3505,-4.3559,-4.3603,-4.3732,-4.3807,-4.3827,-4.3873,-4.3965,-4.4046,-4.4053,-4.4086,-4.4129,-4.4129,-4.3934,-4.3908,-4.3882,-4.385,-4.4136,-4.4137,-4.4329,-4.4331,-4.4332]},{"header":{"parameterUnit":"m.s-1","parameterCategory":1,"la1":30.2991,"la2":30.254,"lo1":-89.0895,"lo2":-89.0444,"dy":0.0017,"dx":0.0017,"nx":28,"ny":28,"refTime":"2023-11-02T21:00:00:Z","depth":0,"parameterNumber":3,"parameterNumberName":"V-component_of_WINDS"},"data":[0,0,0,0,0,0,0,0,0,0,0,0,0,0,0,0,0,0,0,0,0,0,0,0,0,0,0,0,0,0,0,0,0,0,0,0,0,0,0,0,0,0,0,0,0,0,0,0,0,0,0,0,0,0,0,0,0,0,-3.0872,-3.0872,0,-3.0848,-3.0848,-3.0847,-3.0817,-3.0817,-3.0816,-3.0816,-3.079,-3.0789,-3.0789,0,0,0,0,0,0,0,0,0,0,0,0,0,-3.0886,-3.0886,-3.0872,-3.0872,-3.0871,-3.0848,-3.0848,-3.0847,-3.0817,-3.0817,-3.0816,-3.0816,-3.079,-3.0789,-3.0789,0,0,0,0,0,0,0,0,0,0,0,0,0,-3.0873,-3.0886,-3.0872,-3.0854,-3.0852,-3.0848,-3.0848,-3.0847,-3.0818,-3.0817,-3.0816,-3.0816,-3.079,-3.0789,-3.0789,-3.0801,0,0,-3.0788,-3.0788,0,0,0,0,0,0,0,0,-3.0874,-3.0873,-3.0857,-3.0855,-3.0853,-3.0835,-3.0843,-3.0832,-3.0818,-3.0831,-3.0816,-3.0815,-3.0805,-3.0803,-3.0801,-3.08,-3.0799,-3.0788,-3.0788,-3.0787,-3.0787,0,0,0,0,0,0,0,-3.0875,-3.0873,-3.0862,-3.0856,-3.0854,-3.0845,-3.0842,-3.0841,-3.0822,-3.0829,-3.0827,-3.0825,-3.0804,-3.0801,-3.08,-3.0798,-3.0788,-3.0788,-3.0787,-3.0787,-3.0801,-3.0802,0,0,0,0,0,0,-3.0879,-3.0874,-3.0863,-3.0862,-3.0862,-3.0845,-3.0842,-3.0841,-3.0822,-3.0818,-3.0825,-3.0823,-3.0802,-3.08,-3.0799,-3.0808,-3.0787,-3.0787,-3.0787,-3.0801,-3.0801,-3.0802,0,0,0,0,0,0,-3.088,-3.0878,-3.0864,-3.0867,-3.0865,-3.0846,-3.0845,-3.0841,-3.0838,-3.0819,-3.0815,-3.0826,-3.0801,-3.0799,-3.08,-3.0807,-3.0787,-3.0787,-3.08,-3.0801,-3.0802,-3.083,0,0,0,0,0,0,-3.088,-3.0879,-3.0885,-3.0868,-3.0865,-3.0867,-3.0846,-3.0841,-3.0838,-3.0835,-3.0819,-3.0815,-3.0801,-3.08,-3.0799,-3.0806,-3.0786,-3.0799,-3.08,-3.0801,-3.0828,-3.0832,-3.0835,0,0,0,0,0,-3.0881,-3.0894,-3.0885,-3.0884,-3.0872,-3.0868,-3.0866,-3.0849,-3.0839,-3.0843,-3.083,-3.0816,-3.0807,-3.0801,-3.0799,-3.0806,-3.0799,-3.08,-3.0801,-3.0827,-3.0831,-3.0835,0,0,0,0,0,0,-3.0912,-3.0892,-3.0881,-3.089,-3.0881,-3.0863,-3.0868,-3.0855,-3.0848,-3.0846,-3.0825,-3.0821,-3.0824,-3.0815,-3.0809,-3.0814,-3.08,-3.0801,-3.082,-3.0824,-3.0827,-3.0829,-3.0786,0,0,0,0,0,-3.092,-3.092,-3.0901,-3.091,-3.0906,-3.0888,-3.0886,-3.0873,-3.0863,-3.0859,-3.0846,-3.0835,-3.0829,-3.0826,-3.0821,-3.0827,-3.0821,-3.0831,-3.0834,-3.0837,-3.0837,-3.0837,-3.084,-3.0807,-3.0807,-3.0807,0,0,-3.0937,-3.0925,-3.0926,-3.0916,-3.0908,-3.0906,-3.0885,-3.0885,-3.0882,-3.0858,-3.0858,-3.0848,-3.0834,-3.0837,-3.0837,-3.083,-3.0845,-3.0838,-3.0841,-3.084,-3.0838,-3.0842,-3.0844,-3.0807,-3.0807,-3.0807,0,0,-3.0965,-3.0958,-3.0963,-3.0954,-3.0941,-3.0928,-3.0929,-3.0913,-3.0905,-3.0904,-3.0885,-3.0881,-3.0873,-3.0863,-3.0856,-3.0877,-3.0862,-3.0876,-3.0892,-3.0892,-3.0894,-3.0896,-3.0901,-3.0904,-3.0877,-3.0877,-3.0877,0,-3.0987,-3.0985,-3.0967,-3.0967,-3.0962,-3.0939,-3.0943,-3.0935,-3.0921,-3.0916,-3.0908,-3.0895,-3.0884,-3.0882,-3.0887,-3.0884,-3.0882,-3.0877,-3.0896,-3.0898,-3.0899,-3.0904,-3.0906,-3.0878,-3.0878,-3.0878,-3.0878,0,-3.1011,-3.1009,-3.1014,-3.1,-3.0996,-3.0998,-3.0978,-3.0975,-3.0962,-3.095,-3.0947,-3.0933,-3.0922,-3.0921,-3.0909,-3.0916,-3.0911,-3.09,-3.0885,-3.0904,-3.0908,-3.091,-3.0881,-3.088,-3.088,-3.0879,0,0,-3.106,-3.1034,-3.1036,-3.1028,-3.1011,-3.1008,-3.1007,-3.0997,-3.0993,-3.0983,-3.098,-3.0972,-3.096,-3.0953,-3.0939,-3.0939,-3.0952,-3.0926,-3.0926,-3.093,-3.0956,-3.0964,-3.0967,-3.0943,-3.0943,-3.0943,-3.0957,0,-3.1084,-3.1082,-3.1065,-3.1067,-3.1063,-3.104,-3.1039,-3.1027,-3.1014,-3.1008,-3.0993,-3.0987,-3.0973,-3.0968,-3.0967,-3.0951,-3.0957,-3.095,-3.0938,-3.0938,-3.0941,-3.0969,-3.0979,-3.0992,-3.0958,-3.0958,-3.0959,0,-3.1112,-3.1103,-3.1105,-3.1084,-3.1082,-3.1082,-3.1068,-3.1063,-3.1048,-3.1038,-3.1029,-3.1013,-3.1008,-3.0994,-3.0986,-3.0981,-3.0975,-3.0966,-3.0966,-3.0964,-3.0949,-3.0966,-3.0996,-3.0998,-3.0961,-3.0961,-3.0961,0,-3.1145,-3.1133,-3.1132,-3.1126,-3.1102,-3.1102,-3.1092,-3.1076,-3.1069,-3.1057,-3.1052,-3.104,-3.1033,-3.1023,-3.1003,-3.0995,-3.0996,-3.0981,-3.0986,-3.0986,-3.0987,-3.0987,-3.1015,-3.0985,-3.0985,-3.0985,-3.0985,0,-3.1173,-3.1174,-3.1146,-3.1145,-3.1145,-3.1123,-3.1123,-3.1111,-3.1096,-3.1091,-3.107,-3.1065,-3.104,-3.1031,-3.1015,-3.1009,-3.1006,-3.0997,-3.0993,-3.0998,-3.0999,-3.0993,-3.0991,-3.0985,-3.0985,-3.0985,-3.0985,0,-3.1209,-3.1191,-3.1187,-3.1164,-3.1159,-3.1159,-3.1139,-3.1136,-3.1121,-3.1114,-3.1111,-3.1088,-3.1076,-3.1055,-3.1038,-3.1027,-3.1024,-3.1017,-3.1029,-3.1026,-3.1031,-3.103,-3.1056,-3.1057,-3.1028,-3.1028,-3.1028,0,-3.1228,-3.1228,-3.1205,-3.12,-3.119,-3.1183,-3.1176,-3.1153,-3.1147,-3.1127,-3.1126,-3.1113,-3.1101,-3.1083,-3.1064,-3.1049,-3.1041,-3.1051,-3.1039,-3.1044,-3.1039,-3.1039,-3.1037,-3.1054,-3.1054,-3.1054,-3.1055,0,-3.1261,-3.1251,-3.1242,-3.1229,-3.1221,-3.121,-3.1197,-3.1194,-3.1168,-3.1161,-3.1149,-3.114,-3.1121,-3.1107,-3.109,-3.1077,-3.1061,-3.1059,-3.1059,-3.1064,-3.107,-3.1065,-3.1035,-3.1058,-3.1058,-3.1058,-3.1057,-3.1057,-3.1288,-3.1286,-3.1268,-3.1258,-3.1246,-3.1234,-3.1229,-3.1213,-3.1203,-3.1186,-3.1173,-3.1161,-3.1142,-3.1117,-3.1105,-3.1095,-3.1087,-3.1088,-3.1088,-3.1088,-3.1089,-3.1073,-3.1091,-3.1091,-3.1091,-3.1091,-3.1091,0,-3.1318,-3.1305,-3.1296,-3.1279,-3.127,-3.1255,-3.124,-3.1233,-3.1223,-3.1207,-3.1195,-3.118,-3.1166,-3.1144,-3.1127,-3.1123,-3.1115,-3.1119,-3.1119,-3.1115,-3.1098,-3.1099,-3.1126,-3.1126,-3.1126,-3.1126,-3.1126,-3.1126,-3.1333,-3.1328,-3.1316,-3.1303,-3.129,-3.1279,-3.1271,-3.1258,-3.1245,-3.1229,-3.1217,-3.1203,-3.1184,-3.1165,-3.1151,-3.1145,-3.1139,-3.1145,-3.1137,-3.112,-3.1117,-3.1114,-3.1115,-3.1145,-3.1145,-3.1155,-3.1155,-3.1155]}]]